• In Germany
  • List of Countries
  • For 7 days
  • Water Temperature
  • Satellite Maps
  • Weather Map
  • Weather Widgets
  • user-avatar
    Login

    Hourly Weather Kipungo

    Today, 17 August, Thursday

    Time Temperature Precipitation Wind Pressure Humidity
    00:00 +18°C° 0 mm 1 mps 652 mmHg 45%
    01:00 +16°C° 0 mm 1 mps 652 mmHg 51%
    02:00 +16°C° 0 mm 1 mps 652 mmHg 53%
    03:00 +15°C° 0 mm 1 mps 651 mmHg 55%
    04:00 +15°C° 0 mm 1 mps 651 mmHg 57%
    05:00 +15°C° 0 mm 1 mps 651 mmHg 56%
    06:00 +14°C° 0 mm 0 mps 652 mmHg 55%
    07:00 +14°C° 0 mm 0 mps 652 mmHg 53%
    08:00 +20°C° 0 mm 1 mps 653 mmHg 42%
    09:00 +24°C° 0 mm 1 mps 654 mmHg 30%
    10:00 +29°C° 0 mm 1 mps 655 mmHg 18%
    11:00 +31°C° 0 mm 1 mps 655 mmHg 15%
    12:00 +32°C° 0 mm 0 mps 655 mmHg 12%
    13:00 +35°C° 0 mm 0 mps 656 mmHg 8%
    14:00 +34°C° 0 mm 0 mps 655 mmHg 8%
    15:00 +35°C° 0 mm 1 mps 654 mmHg 8%
    16:00 +34°C° 0 mm 1 mps 653 mmHg 8%
    17:00 +31°C° 0 mm 1 mps 653 mmHg 12%
    18:00 +27°C° 0 mm 1 mps 653 mmHg 16%
    19:00 +24°C° 0 mm 1 mps 652 mmHg 20%
    20:00 +23°C° 0 mm 2 mps 652 mmHg 28%
    21:00 +21°C° 0 mm 2 mps 653 mmHg 37%
    22:00 +19°C° 0 mm 2 mps 653 mmHg 46%
    23:00 +18°C° 0 mm 2 mps 653 mmHg 50%

    Tomorrow, 18 August, Friday

    Time Temperature Precipitation Wind Pressure Humidity
    00:00 +19°C° 0 mm 1 mps 653 mmHg 53%
    01:00 +18°C° 0 mm 1 mps 652 mmHg 57%
    02:00 +16°C° 0 mm 1 mps 652 mmHg 58%
    03:00 +16°C° 0 mm 1 mps 652 mmHg 59%
    04:00 +14°C° 0 mm 0 mps 651 mmHg 60%
    05:00 +14°C° 0 mm 0 mps 652 mmHg 58%
    06:00 +14°C° 0 mm 0 mps 652 mmHg 56%
    07:00 +16°C° 0 mm 1 mps 653 mmHg 55%
    08:00 +20°C° 0 mm 1 mps 654 mmHg 43%
    09:00 +24°C° 0 mm 2 mps 655 mmHg 31%
    10:00 +28°C° 0 mm 2 mps 656 mmHg 19%
    11:00 +30°C° 0 mm 2 mps 656 mmHg 15%
    12:00 +32°C° 0 mm 2 mps 655 mmHg 12%
    13:00 +35°C° 0 mm 2 mps 655 mmHg 9%
    14:00 +35°C° 0 mm 2 mps 654 mmHg 9%
    15:00 +33°C° 0 mm 1 mps 654 mmHg 8%
    16:00 +33°C° 0 mm 1 mps 653 mmHg 8%
    17:00 +30°C° 0 mm 1 mps 653 mmHg 10%
    18:00 +27°C° 0 mm 1 mps 652 mmHg 13%
    19:00 +24°C° 0 mm 1 mps 652 mmHg 15%
    20:00 +23°C° 0 mm 1 mps 653 mmHg 18%
    21:00 +22°C° 0 mm 1 mps 653 mmHg 21%
    22:00 +20°C° 0 mm 2 mps 653 mmHg 24%
    23:00 +20°C° 0 mm 1 mps 653 mmHg 29%

    Day after tomorrow, 19 August, Saturday

    Time Temperature Precipitation Wind Pressure Humidity
    00:00 +19°C° 0 mm 1 mps 653 mmHg 34%
    01:00 +18°C° 0 mm 1 mps 652 mmHg 39%
    02:00 +16°C° 0 mm 1 mps 652 mmHg 39%
    03:00 +16°C° 0 mm 1 mps 652 mmHg 38%
    04:00 +15°C° 0 mm 1 mps 652 mmHg 38%
    05:00 +15°C° 0 mm 1 mps 652 mmHg 34%
    06:00 +15°C° 0 mm 1 mps 653 mmHg 31%
    07:00 +15°C° 0 mm 1 mps 653 mmHg 27%
    08:00 +20°C° 0 mm 2 mps 654 mmHg 22%
    09:00 +25°C° 0 mm 3 mps 655 mmHg 17%
    10:00 +29°C° 0 mm 4 mps 656 mmHg 11%
    11:00 +31°C° 0 mm 3 mps 656 mmHg 10%
    12:00 +34°C° 0 mm 3 mps 656 mmHg 9%
    13:00 +36°C° 0 mm 3 mps 655 mmHg 8%
    14:00 +36°C° 0 mm 2 mps 655 mmHg 8%
    15:00 +36°C° 0 mm 2 mps 654 mmHg 7%
    16:00 +35°C° 0 mm 1 mps 654 mmHg 7%
    17:00 +32°C° 0 mm 1 mps 654 mmHg 10%
    18:00 +29°C° 0 mm 1 mps 654 mmHg 12%
    19:00 +26°C° 0 mm 1 mps 653 mmHg 15%
    20:00 +24°C° 0 mm 1 mps 654 mmHg 22%
    21:00 +23°C° 0 mm 1 mps 654 mmHg 30%
    22:00 +21°C° 0 mm 1 mps 654 mmHg 37%
    23:00 +20°C° 0 mm 1 mps 654 mmHg 41%

    20 August, Sunday

    Time Temperature Precipitation Wind Pressure Humidity
    00:00 +18°C° 0 mm 2 mps 653 mmHg 45%
    01:00 +18°C° 0 mm 2 mps 653 mmHg 50%
    02:00 +18°C° 0 mm 1 mps 653 mmHg 50%
    03:00 +16°C° 0 mm 1 mps 653 mmHg 51%
    04:00 +16°C° 0 mm 1 mps 653 mmHg 51%
    05:00 +16°C° 0 mm 1 mps 653 mmHg 48%
    06:00 +16°C° 0 mm 1 mps 654 mmHg 46%
    07:00 +16°C° 0 mm 1 mps 654 mmHg 43%
    08:00 +20°C° 0 mm 2 mps 655 mmHg 33%
    09:00 +25°C° 0 mm 2 mps 656 mmHg 23%
    10:00 +29°C° 0 mm 3 mps 657 mmHg 13%
    11:00 +31°C° 0 mm 3 mps 657 mmHg 12%
    12:00 +34°C° 0 mm 3 mps 656 mmHg 10%
    13:00 +36°C° 0 mm 3 mps 656 mmHg 9%
    14:00 +36°C° 0 mm 3 mps 655 mmHg 8%
    15:00 +36°C° 0 mm 3 mps 655 mmHg 8%
    16:00 +36°C° 0 mm 2 mps 655 mmHg 8%
    17:00 +32°C° 0 mm 2 mps 655 mmHg 10%
    18:00 +29°C° 0 mm 1 mps 654 mmHg 13%
    19:00 +26°C° 0 mm 1 mps 654 mmHg 15%
    20:00 +25°C° 0 mm 1 mps 654 mmHg 19%
    21:00 +23°C° 0 mm 1 mps 655 mmHg 22%
    22:00 +21°C° 0 mm 2 mps 655 mmHg 26%
    23:00 +20°C° 0 mm 2 mps 654 mmHg 31%

    21 August, Monday

    Time Temperature Precipitation Wind Pressure Humidity
    00:00 +20°C° 0 mm 1 mps 654 mmHg 35%
    01:00 +19°C° 0 mm 1 mps 654 mmHg 40%
    02:00 +18°C° 0 mm 1 mps 654 mmHg 40%
    03:00 +18°C° 0 mm 1 mps 653 mmHg 40%
    04:00 +16°C° 0 mm 1 mps 653 mmHg 40%
    05:00 +16°C° 0 mm 1 mps 654 mmHg 36%
    06:00 +18°C° 0 mm 1 mps 654 mmHg 32%
    07:00 +18°C° 0 mm 1 mps 654 mmHg 27%
    08:00 +21°C° 0 mm 2 mps 655 mmHg 23%
    09:00 +26°C° 0 mm 2 mps 656 mmHg 18%
    10:00 +30°C° 0 mm 3 mps 657 mmHg 13%
    11:00 +33°C° 0 mm 3 mps 656 mmHg 12%
    12:00 +35°C° 0 mm 3 mps 656 mmHg 12%
    13:00 +36°C° 0 mm 3 mps 655 mmHg 12%
    14:00 +36°C° 0 mm 3 mps 655 mmHg 11%
    15:00 +37°C° 0 mm 3 mps 655 mmHg 11%
    16:00 +37°C° 0 mm 2 mps 654 mmHg 10%
    17:00 +34°C° 0 mm 2 mps 654 mmHg 12%
    18:00 +30°C° 0 mm 2 mps 654 mmHg 15%
    19:00 +27°C° 0 mm 1 mps 654 mmHg 17%
    20:00 +26°C° 0 mm 1 mps 654 mmHg 18%
    21:00 +25°C° 0 mm 1 mps 654 mmHg 20%
    22:00 +24°C° 0 mm 2 mps 654 mmHg 21%
    23:00 +21°C° 0 mm 2 mps 654 mmHg 23%

    22 August, Tuesday

    Time Temperature Precipitation Wind Pressure Humidity
    00:00 +21°C° 0 mm 1 mps 653 mmHg 25%
    01:00 +20°C° 0 mm 1 mps 653 mmHg 26%
    02:00 +20°C° 0 mm 1 mps 653 mmHg 25%
    03:00 +19°C° 0 mm 1 mps 652 mmHg 24%
    04:00 +18°C° 0 mm 1 mps 652 mmHg 22%
    05:00 +18°C° 0 mm 1 mps 653 mmHg 21%
    06:00 +17°C° 0 mm 2 mps 653 mmHg 21%
    07:00 +17°C° 0 mm 2 mps 654 mmHg 20%
    08:00 +21°C° 0 mm 2 mps 654 mmHg 17%
    09:00 +26°C° 0 mm 2 mps 655 mmHg 14%
    10:00 +30°C° 0 mm 2 mps 656 mmHg 11%
    11:00 +33°C° 0 mm 3 mps 656 mmHg 10%
    12:00 +34°C° 0 mm 3 mps 655 mmHg 9%
    13:00 +36°C° 0 mm 3 mps 655 mmHg 8%
    14:00 +36°C° 0 mm 3 mps 654 mmHg 8%
    15:00 +36°C° 0 mm 3 mps 654 mmHg 8%
    16:00 +36°C° 0 mm 2 mps 653 mmHg 8%
    17:00 +32°C° 0 mm 2 mps 653 mmHg 10%
    18:00 +29°C° 0 mm 1 mps 653 mmHg 12%
    19:00 +26°C° 0 mm 1 mps 652 mmHg 13%
    20:00 +25°C° 0 mm 1 mps 652 mmHg 15%
    21:00 +24°C° 0 mm 1 mps 653 mmHg 16%
    22:00 +23°C° 0 mm 1 mps 653 mmHg 17%
    23:00 +22°C° 0 mm 1 mps 652 mmHg 19%
    Show more